Hourly Data Report for July 01, 2021

DRYDEN REGIONAL
ONTARIO
Current Station Operator: NAVCAN

49°49'39.000" N
92°44'39.000" W
412.70 m
6032125
71527
YHD

Download Data

Hourly Data (July 2021)
Hourly Data Report for July 1, 2021
TIME
LST
Temp Definition
°C
Dew Point Definition
°C
Rel Hum Definition
%
Precip. Amount Definition
mm

Wind Dir Definition
10's deg

Wind Spd Definition
km/h
Visibility Definition
km
Stn Press Definition
kPa
Hmdx Definition


Wind Chill Definition


Weather Definition


00:00 16.7 10.9 68 0.0 7 11 6.4 97.27     Haze
01:00 16.1 9.8 66 0.0 6 11 12.9 97.29     LegendNANA
02:00 15.0 10.1 72 0.0 5 9 16.1 97.28     LegendNANA
03:00 14.5 10.0 74 0.0 6 9 6.4 97.30     Haze
04:00 14.4 10.3 76 0.0 9 11 3.6 97.34     Haze
05:00 14.1 11.3 83 0.0 8 9 14.5 97.39     LegendNANA
06:00 15.3 10.9 75 0.0 10 9 16.1 97.42     LegendNANA
07:00 16.9 11.0 68 0.0 13 13 16.1 97.40     LegendNANA
08:00 18.5 11.7 64 0.0 7 8 16.1 97.42     LegendNANA
09:00 19.6 12.4 63 0.0 5 8 16.1 97.39     LegendNANA
10:00 21.6 12.2 55 0.0 2 9 16.1 97.38     LegendNANA
11:00 22.4 11.9 51 0.0 LegendMM 4 16.1 97.34 25   LegendNANA
12:00 24.2 11.8 45 0.0 5 9 16.1 97.33 26   LegendNANA
13:00 24.1 8.9 37 0.0 8 8 16.1 97.32 25   LegendNANA
14:00 24.9 9.1 36 0.0 11 8 16.1 97.27 26   LegendNANA
15:00 25.9 10.0 36 0.0 7 8 16.1 97.21 27   LegendNANA
16:00 25.6 9.7 36 0.0 LegendMM 4 16.1 97.16 27   LegendNANA
17:00 26.2 10.7 37 0.0 LegendMM 9 16.1 97.13 28   LegendNANA
18:00 25.9 10.3 37 0.0 14 9 16.1 97.10 27   LegendNANA
19:00 25.2 10.4 39 0.0 20 9 16.1 97.10 27   LegendNANA
20:00 23.7 11.0 44 0.0 20 5 16.1 97.07 25   LegendNANA
21:00 20.6 15.2 71 0.0   0 16.1 97.08 25   LegendNANA
22:00 22.2 10.5 47 0.0 15 9 16.1 97.11     LegendNANA
23:00 20.6 12.4 59 0.0 17 5 16.1 97.12     LegendNANA

Notes on Data Quality.

Legend

  • E = Estimated
  • M = Missing
  • NA = Not Available*
  • [empty] = Indicates an unobserved value
Date modified: